Temp
32 31 30 29 29 28 28 28 28 27 27 27 26 26 26 25 25 25 25 25 25 25 25 25 26 26 25 25 25 25 24 24 25 24 24 25 24 24 24 24 24 23 23 23 23 23 23 23 23 22 22 22 22 22 22 22 21 21 22 21 21 22 22 22 22 22 22 23 23 24 23 22 22 22 22 22 22 23 23 23 23 23 23 23 22
32 31 30 30 29 29 28 28 28 28 27 27 26 26 26 26 26 26 26 25 25 25 25 25 26 26 25 25 25 26 25 25 25 25 25 24 24 24 24 24 24 23 23 23 24 23 23 23 22 22 22 22 22 22 22 21 21 21 21 21 22 22 22 22 22 22 23 23 24 24 24 23 22 22 23 23 23 23 23 23 23 23 23 22 22
31 31 30 30 30 30 29 29 28 28 28 27 27 26 26 26 26 26 26 26 26 25 25 25 25 25 26 26 26 26 26 25 25 25 25 24 24 24 24 24 24 24 23 23 23 23 23 23 23 23 22 22 22 22 22 22 21 21 21 22 22 22 22 23 22 22 23 24 23 23 24 24 23 23 23 23 23 23 24 23 22 22 22 22 22
31 31 31 30 30 30 29 29 29 29 28 28 27 27 26 26 26 26 26 26 26 25 25 25 25 25 26 25 25 25 25 25 24 24 25 24 24 24 23 24 24 23 24 24 23 23 23 23 23 23 22 22 22 22 22 22 22 22 21 21 22 22 23 23 22 22 23 23 23 23 24 24 24 23 24 23 22 23 24 23 22 22 22 21 21
31 30 31 31 31 30 30 29 29 29 29 28 28 27 27 26 26 26 26 26 26 26 25 25 25 25 25 25 25 25 25 25 25 25 25 24 25 25 23 24 24 23 24 24 23 23 23 23 23 23 23 22 22 22 22 22 22 21 21 21 21 22 23 23 22 22 22 22 23 23 23 23 23 23 23 23 22 23 24 23 22 22 22 21 21
31 31 31 32 31 31 30 29 29 29 29 28 28 28 27 27 27 26 26 26 26 26 26 25 25 25 25 25 25 25 25 26 26 26 26 26 26 26 24 24 23 23 23 23 23 24 23 23 23 23 23 22 22 22 22 22 22 21 21 21 21 21 22 22 23 22 22 22 22 22 22 22 22 22 22 22 23 23 24 23 23 22 22 21 21
32 31 31 32 32 31 30 30 29 29 29 29 28 28 28 27 27 26 26 26 27 27 26 26 25 25 25 26 26 26 26 26 26 26 26 25 25 25 24 24 23 23 24 23 23 23 23 23 23 23 23 22 22 22 22 22 21 21 21 21 21 21 21 22 23 23 22 22 22 22 22 22 22 22 22 23 23 23 23 24 24 23 22 22 22
32 31 31 32 32 32 31 30 29 29 29 29 28 28 28 28 27 26 26 26 27 27 26 26 25 25 25 26 26 26 26 27 26 26 26 25 25 25 24 24 23 24 24 23 23 23 23 23 23 23 23 22 22 22 22 22 21 21 21 21 21 21 21 21 22 23 23 22 22 22 21 21 22 22 22 22 23 23 23 24 24 23 22 22 22
33 32 32 32 32 32 31 30 30 30 30 29 29 29 28 28 27 27 27 27 27 27 27 26 25 25 25 26 26 26 26 27 27 26 26 25 25 25 24 24 24 23 23 23 23 23 23 23 23 23 23 23 22 23 23 22 22 21 21 21 21 21 21 21 21 22 22 22 21 21 21 22 22 22 22 22 22 22 23 24 24 23 23 22 22
33 33 32 32 32 32 31 31 30 30 30 29 29 29 28 28 28 27 27 27 27 27 27 26 26 26 25 26 26 26 26 26 26 26 25 25 25 25 24 24 24 24 23 23 23 23 23 23 24 23 23 23 23 23 23 22 22 22 21 21 21 21 21 21 21 21 22 22 21 21 22 22 22 22 22 22 22 22 22 23 24 24 23 23 22
33 33 33 33 32 32 31 31 30 30 30 30 29 29 29 29 28 28 28 28 28 27 27 27 26 26 26 26 26 26 26 26 26 26 25 25 25 25 24 24 24 24 24 24 23 23 23 23 24 23 23 23 22 22 22 22 22 22 22 21 21 21 21 21 21 22 21 21 21 22 22 22 22 22 22 22 22 23 22 23 24 23 23 23 22
33 33 33 33 32 32 32 31 31 30 30 30 30 29 29 29 28 28 28 28 28 28 27 27 27 27 26 26 26 26 26 26 26 26 26 25 25 25 25 24 24 24 24 24 24 24 24 23 23 23 23 22 22 22 22 22 22 22 22 21 21 21 21 21 21 21 22 21 21 22 22 22 22 21 22 22 22 22 22 22 23 23 22 23 23
34 33 33 33 32 32 32 32 31 31 30 30 30 30 30 29 29 28 28 28 28 28 27 27 27 27 26 26 26 26 26 26 26 26 26 26 25 25 25 25 24 24 24 24 24 24 24 23 23 22 22 22 22 22 22 22 22 22 22 21 22 21 21 21 21 22 22 21 22 22 22 22 22 21 21 21 21 21 21 22 23 22 22 22 22
34 33 33 33 33 32 33 32 31 31 30 30 30 30 30 29 29 29 28 28 28 28 27 27 27 27 27 26 26 26 26 26 26 26 26 26 25 25 25 25 25 24 24 24 24 24 23 23 23 22 22 22 22 22 22 22 21 22 22 22 22 22 21 21 21 22 22 22 22 22 22 22 22 22 21 21 21 22 22 22 22 22 22 23 23
34 34 33 33 33 33 33 32 31 31 30 30 30 30 30 30 29 29 28 28 28 28 27 27 27 27 27 26 26 26 26 26 26 26 26 26 25 25 25 25 25 25 24 24 24 24 23 23 22 22 22 22 21 21 21 21 21 21 21 22 22 22 21 21 21 21 21 21 21 21 21 22 22 22 21 21 21 22 22 22 21 21 22 22 23
35 34 34 33 33 33 32 32 31 31 31 31 30 30 30 30 29 28 28 28 28 28 27 27 27 27 27 26 26 26 26 26 26 26 26 26 25 25 25 25 25 25 24 24 24 23 23 23 22 22 22 22 21 21 21 22 21 21 21 21 22 22 21 21 21 21 21 21 21 21 21 21 22 21 21 21 21 21 21 21 21 21 21 21 22
35 35 34 33 33 33 32 32 32 31 31 31 30 30 29 29 29 28 28 28 28 28 27 27 27 27 27 26 26 26 26 26 26 26 26 26 25 25 25 25 24 24 24 24 23 23 23 22 22 22 22 22 22 21 21 22 21 21 22 21 22 22 21 21 21 21 21 21 21 21 21 21 21 21 21 21 21 20 20 20 21 21 21 21 21
35 35 34 34 33 33 33 33 32 32 31 31 30 29 29 29 29 29 28 28 28 28 28 27 27 27 27 26 26 26 26 26 26 26 26 26 25 25 25 25 24 24 24 23 23 23 22 22 22 22 22 22 22 22 21 21 21 22 22 22 22 22 22 21 21 21 21 21 21 21 21 21 21 21 21 21 21 20 20 21 21 21 21 21 21
36 35 34 34 34 33 34 34 33 33 32 31 30 30 29 29 29 29 29 29 28 28 28 27 27 27 26 26 26 26 26 26 26 26 26 26 25 25 25 25 24 23 23 23 23 23 23 22 22 22 22 22 22 22 21 21 21 21 22 22 22 22 22 22 21 21 21 21 21 21 21 21 21 21 21 21 21 20 20 21 21 21 21 21 21
36 35 35 34 34 35 35 34 34 33 32 31 31 30 30 30 29 29 29 29 29 29 28 27 27 27 26 26 26 26 26 26 26 26 25 25 25 25 25 24 23 23 23 22 23 23 22 22 22 22 22 22 22 22 22 21 21 21 21 22 22 22 22 22 22 22 22 22 21 21 21 21 21 21 21 21 21 21 21 21 21 21 21 21 21
36 36 35 35 35 36 36 35 35 34 33 32 32 32 31 31 30 30 30 29 29 29 28 27 27 26 26 26 26 26 25 25 25 25 25 25 25 25 25 24 24 23 22 22 22 22 22 22 22 22 22 22 21 21 21 21 21 21 21 21 22 22 21 21 21 21 22 22 22 21 21 22 21 21 21 21 21 21 21 21 21 21 21 21 20
36 35 36 35 35 36 37 36 35 34 34 33 33 33 32 32 32 31 30 30 30 29 28 27 27 26 26 26 26 25 25 25 25 25 25 25 25 25 24 24 23 23 23 22 22 22 21 21 22 21 21 21 21 21 21 21 21 21 21 21 21 21 21 21 21 21 21 21 22 22 22 22 21 20 21 21 22 22 21 21 21 21 21 20 20
36 36 36 36 35 36 36 36 35 34 34 33 33 33 33 33 32 32 31 31 31 30 29 27 27 27 26 26 26 25 25 25 25 25 24 24 25 25 24 23 21 21 22 23 22 22 22 21 21 21 21 21 21 21 21 21 21 21 21 21 21 21 21 21 22 21 21 22 22 22 22 22 22 21 21 22 22 21 21 21 21 21 21 20 20
36 36 36 36 36 36 35 35 34 33 33 33 33 33 33 33 33 32 32 31 31 31 30 28 27 27 27 26 25 25 25 25 25 24 24 24 24 24 23 22 20 20 22 23 22 22 21 21 21 21 21 21 20 21 21 21 21 21 21 21 21 21 21 21 21 21 22 22 22 22 22 22 22 22 22 22 21 21 21 21 21 21 21 20 20
35 36 36 36 36 35 34 34 33 32 33 33 32 32 33 32 32 32 32 32 31 32 31 29 28 28 27 26 26 25 25 25 24 23 24 24 24 23 22 22 22 22 21 21 22 21 21 21 21 21 21 20 20 20 21 21 21 21 21 21 21 21 21 21 21 21 21 21 22 22 22 22 23 23 22 22 22 21 21 21 21 21 21 20 20
34 35 35 35 35 34 34 33 32 32 32 32 32 32 32 32 32 32 32 32 32 32 32 31 30 29 28 26 26 25 24 24 23 23 24 25 24 23 23 23 24 23 22 22 22 22 22 21 21 21 21 20 20 20 20 21 21 21 21 21 21 21 21 21 21 21 21 21 21 22 22 22 22 23 22 22 22 21 21 21 20 21 21 21 20
33 34 34 34 34 33 32 32 32 32 32 32 32 32 32 31 31 31 32 32 31 32 32 31 30 30 28 26 25 24 24 23 23 23 25 26 26 25 24 24 24 24 23 22 22 23 23 22 21 21 21 21 20 20 20 20 21 21 21 21 21 21 21 21 21 21 21 22 22 22 22 22 22 22 22 22 21 21 21 21 20 20 20 20 20
33 33 33 33 33 32 32 32 32 32 32 31 31 31 31 31 30 31 31 31 31 31 31 30 30 30 28 25 24 24 23 23 22 22 24 26 27 27 25 24 24 25 24 23 23 24 24 22 21 21 20 21 20 20 20 20 20 21 21 21 21 21 21 21 21 22 22 22 22 22 23 23 23 22 22 21 21 21 21 21 20 20 20 20 20
33 32 32 32 32 32 32 31 32 32 32 32 31 31 31 30 30 30 30 31 31 30 30 29 29 28 26 24 23 22 21 21 21 22 24 26 27 27 26 25 24 24 24 23 23 24 24 22 21 20 20 20 20 20 20 20 20 20 20 20 21 21 21 21 22 22 22 21 21 22 22 22 22 22 21 21 21 21 21 21 21 21 21 21 21
33 32 32 32 32 31 31 31 32 32 32 31 31 31 30 30 30 30 30 30 30 30 29 29 28 26 24 23 22 21 21 21 21 22 23 24 26 26 26 25 24 24 24 23 23 24 23 22 20 19 20 20 20 20 20 20 21 20 20 20 20 21 21 21 21 22 21 21 21 21 21 21 21 21 21 21 21 21 21 21 21 21 21 21 21
34 33 32 32 32 31 31 31 31 31 31 31 31 30 30 31 31 30 30 30 30 29 29 29 27 24 23 22 22 21 21 21 22 22 22 23 24 26 26 25 24 24 24 23 23 23 22 20 19 19 20 19 20 21 21 21 21 21 21 21 20 21 21 21 21 21 21 21 21 21 21 21 20 19 20 20 20 20 20 21 21 20 20 20 20
35 33 32 32 32 31 31 31 31 31 31 31 30 30 30 31 31 31 30 30 29 29 29 29 27 24 22 22 22 21 21 21 21 22 22 23 24 24 25 25 24 24 24 23 22 21 20 19 19 20 20 20 20 21 21 21 21 21 21 21 20 20 20 21 21 21 20 20 20 20 20 20 20 19 19 19 19 19 19 20 20 20 20 20 20
34 33 32 32 32 31 31 31 32 32 31 31 31 30 30 30 30 30 30 30 29 29 29 28 26 23 23 22 21 21 20 20 21 22 22 23 23 23 24 24 24 24 23 21 21 20 19 19 19 20 20 20 20 21 21 21 20 20 20 20 20 20 20 20 20 20 19 19 19 20 20 19 19 19 18 18 19 19 19 18 18 19 19 19 19
33 33 32 32 32 32 32 32 32 32 31 31 31 30 30 30 30 29 30 29 29 29 28 26 25 24 23 22 21 20 20 20 21 22 22 23 22 23 23 23 23 22 21 20 20 20 19 19 19 20 20 20 20 20 20 20 20 20 20 20 20 20 20 19 19 19 19 19 19 19 18 18 18 18 17 17 18 18 18 17 17 18 19 19 19
33 33 32 31 31 31 31 32 32 31 31 31 30 30 30 30 29 29 29 29 28 28 27 25 24 23 22 22 21 20 20 20 20 21 21 22 22 23 23 22 22 21 21 21 20 20 20 20 20 20 20 20 20 20 20 20 20 20 20 20 20 20 19 19 19 19 19 19 18 18 18 17 17 17 17 17 17 17 17 17 17 18 19 19 19
33 32 31 31 31 31 31 31 31 31 31 31 31 31 31 30 30 29 28 28 28 28 27 25 24 23 22 22 21 20 20 20 20 21 21 21 22 22 22 22 21 21 21 21 20 20 20 20 20 20 20 20 20 20 20 20 20 20 20 20 19 19 19 19 19 19 18 18 18 17 17 17 17 17 17 17 17 17 17 17 17 18 18 18 19
33 33 32 31 31 31 31 31 31 31 31 32 32 32 31 31 30 29 28 27 27 27 26 25 24 23 22 21 21 21 20 21 21 21 21 21 21 22 22 21 21 21 22 21 21 21 21 20 20 20 20 20 19 20 20 20 20 21 20 20 19 19 19 19 18 19 19 18 18 18 18 18 17 16 17 17 17 17 17 17 17 18 18 18 18
33 32 31 31 31 31 31 30 31 32 32 32 32 32 31 30 29 28 28 27 26 26 26 25 24 23 22 21 21 21 21 21 21 21 21 22 22 21 21 21 21 22 22 22 22 21 21 20 20 20 20 20 20 20 20 20 20 21 21 20 19 18 18 18 18 18 18 18 18 18 18 17 16 16 16 16 16 16 16 17 17 17 17 18 18
32 31 31 31 31 31 30 31 32 32 32 31 31 30 30 29 28 28 27 27 26 26 25 25 24 23 22 21 21 21 21 21 21 21 21 21 21 21 21 21 21 22 22 22 22 22 21 20 20 20 20 20 21 20 20 21 21 22 22 21 19 19 19 18 17 17 18 17 17 17 17 17 16 16 16 16 16 16 16 16 17 17 17 18 18
32 31 30 30 30 30 31 32 32 31 30 30 29 29 29 28 28 28 27 27 26 25 25 25 24 23 22 22 22 21 21 21 21 21 21 21 21 22 21 21 21 22 22 22 22 22 21 21 21 21 20 20 21 21 21 22 22 21 21 20 19 19 19 18 18 17 18 17 16 16 16 16 16 16 16 16 16 15 15 15 16 17 17 17 16
31 30 30 30 30 31 32 32 30 29 29 29 29 29 28 28 28 28 28 27 26 25 25 25 24 23 22 22 22 22 21 21 21 21 21 21 22 21 21 21 22 22 22 22 22 22 22 22 22 22 21 21 21 21 21 21 20 20 20 19 19 19 18 18 18 18 18 18 17 16 16 15 16 16 15 15 15 15 14 14 15 15 15 14 14
30 30 31 32 32 32 31 30 29 28 29 29 29 28 28 28 28 28 28 27 25 25 25 24 24 23 23 22 22 22 21 21 21 21 21 21 21 21 21 21 22 23 22 22 22 22 22 22 22 22 21 21 21 20 19 19 19 19 19 19 19 18 18 18 18 18 18 18 17 17 16 15 15 15 15 14 14 14 14 13 13 13 13 13 12
31 31 32 32 31 30 30 29 29 29 29 29 29 28 28 28 28 28 27 26 25 24 24 24 24 23 23 23 22 22 21 21 21 21 21 21 21 21 21 22 22 23 22 22 22 22 22 22 22 21 21 20 19 20 20 19 19 19 19 19 19 18 18 18 18 17 18 18 17 17 16 15 15 15 14 14 14 13 13 12 13 13 12 12 12
33 33 32 31 30 28 28 27 27 28 29 29 28 27 27 28 28 27 26 25 25 24 23 23 23 23 23 23 22 22 21 21 21 21 21 21 21 22 22 22 22 22 22 22 22 22 22 22 22 22 21 19 19 20 20 20 20 19 19 19 19 18 18 18 18 18 18 18 17 16 15 15 15 15 14 14 13 13 12 12 12 12 12 12 12
32 31 31 31 29 28 27 26 25 26 26 27 27 27 27 26 26 25 25 25 24 24 23 24 23 23 22 22 22 21 21 21 21 21 21 21 21 22 22 21 22 22 22 22 22 22 22 22 23 22 21 20 19 19 19 19 19 19 19 19 18 17 17 17 18 18 18 17 17 16 15 15 15 14 14 13 13 13 12 12 12 12 12 12 13
30 29 30 30 30 29 28 27 26 26 26 26 26 26 25 24 23 23 24 24 23 23 23 23 23 22 22 22 21 21 21 21 21 21 21 21 22 22 22 21 22 22 22 22 23 23 23 23 23 22 22 21 20 19 19 19 19 18 18 18 17 16 17 18 18 17 17 16 16 15 15 15 14 14 13 13 13 13 12 12 12 12 12 13 13
28 27 28 29 29 29 29 27 26 26 27 27 26 25 24 23 23 23 23 23 23 23 23 23 22 22 22 22 22 22 21 21 21 21 21 21 22 22 22 22 22 22 22 22 22 22 23 23 22 22 22 21 20 19 19 18 18 17 17 16 16 17 18 18 17 16 16 15 15 15 15 14 14 13 13 13 13 13 13 13 13 13 13 13 13
26 26 27 28 28 28 28 27 26 26 26 26 25 24 23 22 23 23 23 23 22 23 23 23 22 22 22 22 22 21 22 22 22 21 22 22 22 22 22 22 22 22 22 22 22 22 22 22 22 22 21 20 20 19 19 19 18 18 18 18 17 18 18 17 17 17 16 15 14 14 14 14 14 14 14 14 14 14 13 13 14 14 14 13 13
26 26 26 27 27 27 26 26 25 25 25 24 23 23 22 23 23 23 23 22 22 22 23 23 23 22 22 22 22 21 22 22 21 21 20 21 21 21 21 21 21 21 21 21 21 22 22 22 22 22 21 21 20 20 20 20 20 20 19 19 19 19 18 17 17 17 16 16 15 15 15 15 15 16 16 17 16 16 15 15 14 14 14 14 14
25 25 25 26 26 26 26 25 25 24 24 23 23 23 23 23 24 23 22 22 22 23 23 23 23 22 22 22 22 22 22 22 21 20 19 19 19 20 20 20 19 19 20 20 20 21 21 22 22 22 21 22 22 21 20 20 20 20 19 19 19 18 18 17 16 16 16 16 17 17 17 17 17 17 17 17 17 17 16 16 15 14 14 14 14
25 24 25 25 25 25 25 25 24 24 24 24 23 23 23 23 23 23 22 22 22 23 24 24 24 23 22 22 23 23 22 22 22 21 20 19 19 18 18 19 19 18 18 19 19 20 20 21 21 20 20 21 21 20 20 20 19 19 19 18 18 17 17 16 15 15 16 17 17 17 18 18 17 17 18 17 17 16 16 15 15 15 15 15 14
Height
778 783 787 790 793 796 799 801 804 806 808 810 812 814 816 818 820 821 823 825 826 827 828 829 830 831 832 833 834 835 836 836 837 838 838 839 840 840 840 840 841 842 844 846 845 845 845 846 846 847 848 848 848 849 850 850 850 850 851 851 851 850 849 849 849 849 849 848 847 846 846 847 847 847 847 846 846 846 845 845 845 844 844 844 843
775 780 783 787 790 792 796 798 800 802 804 807 809 811 813 815 817 819 820 822 823 824 826 827 827 828 829 830 832 833 833 834 835 835 836 837 838 839 839 840 840 842 843 844 843 843 844 844 844 846 847 848 848 849 849 849 849 849 850 850 849 849 849 848 849 848 848 847 846 846 845 845 847 846 846 846 846 846 846 846 846 846 845 845 844
774 777 780 783 786 789 792 794 796 798 800 803 805 808 810 812 814 816 817 819 820 822 823 824 825 826 827 829 830 831 832 833 833 833 834 835 836 837 838 839 840 841 842 841 841 842 843 843 843 845 847 847 847 847 847 847 848 848 849 848 848 848 848 847 848 848 846 846 847 847 845 844 846 846 845 846 847 846 846 847 848 848 847 847 846
773 774 776 779 782 785 787 790 792 795 797 799 802 804 806 808 810 812 814 816 817 819 821 822 824 825 826 827 829 830 830 831 832 832 832 834 835 836 837 837 838 840 840 840 840 841 841 842 843 845 845 845 845 845 846 846 847 847 847 848 848 847 846 846 847 847 847 846 846 846 845 845 846 846 845 846 847 847 846 847 849 849 849 849 848
770 771 772 774 777 780 783 786 789 791 793 795 798 800 802 804 807 809 811 813 814 816 818 820 822 824 825 826 828 829 829 830 831 831 831 832 833 834 834 835 836 838 838 839 839 839 840 842 843 843 843 843 844 844 845 845 846 846 847 847 847 847 846 846 846 847 847 847 846 846 846 847 847 846 846 847 847 847 847 848 850 851 850 850 850
764 766 767 768 772 776 779 783 785 787 789 792 795 797 799 801 804 806 808 810 812 814 815 817 819 821 822 823 825 826 827 828 829 829 829 830 831 832 833 834 835 836 836 837 838 838 840 841 841 841 841 842 843 844 844 845 845 846 847 847 847 847 847 846 846 846 846 846 846 846 846 847 847 847 847 848 847 846 847 847 849 851 851 851 851
759 761 762 764 767 771 775 778 781 784 786 789 792 794 796 799 801 803 805 807 809 811 813 815 816 818 819 821 822 824 824 825 826 827 828 829 830 831 832 832 833 834 835 836 836 837 839 839 839 840 841 841 842 843 844 844 845 846 846 846 846 847 847 847 846 845 845 846 846 845 845 846 846 846 847 847 847 847 847 847 847 849 851 851 851
755 758 759 760 763 766 770 775 778 780 783 786 789 791 793 796 798 800 803 804 806 808 810 812 813 815 817 818 820 821 822 823 825 826 827 828 829 830 830 831 832 832 834 834 835 836 837 838 839 840 841 841 842 843 843 844 844 845 846 846 846 847 847 847 847 846 845 845 845 846 846 846 846 846 846 846 847 848 847 845 846 848 849 850 850
749 753 755 756 759 762 766 771 774 777 780 783 785 788 790 793 796 798 800 802 803 805 807 809 811 812 815 816 817 818 820 821 823 824 825 826 827 828 829 830 830 831 832 833 834 836 837 838 839 840 841 841 842 842 843 843 844 844 845 845 846 846 847 847 847 847 846 845 846 846 846 846 845 845 846 846 847 847 847 845 845 847 847 848 849
744 747 749 752 755 759 763 767 771 774 776 780 782 784 787 789 792 794 796 799 800 802 804 806 808 810 812 813 814 816 818 820 821 822 823 824 826 827 828 829 829 830 831 832 834 835 837 838 839 840 841 841 842 842 842 843 843 844 844 844 845 846 847 847 847 847 847 846 846 846 846 846 846 846 846 846 846 847 847 845 844 844 845 846 847
739 742 744 748 752 755 759 762 766 770 773 776 778 781 784 786 788 791 793 795 797 799 801 803 805 807 809 811 812 814 816 817 819 820 821 822 824 825 826 827 828 830 831 832 834 835 836 838 839 840 841 841 842 842 843 842 842 843 843 843 844 845 846 847 847 847 847 847 846 846 846 846 847 847 846 846 846 845 846 845 843 843 844 845 845
734 739 741 743 748 751 754 757 761 765 768 771 774 777 780 782 784 787 789 791 794 795 798 800 802 804 806 808 810 812 813 815 816 818 819 821 822 824 825 827 828 829 831 832 833 835 836 838 839 840 840 841 842 842 842 842 842 842 842 842 843 844 845 846 846 846 847 847 847 846 847 846 847 847 847 847 847 846 846 845 843 843 844 843 843
728 733 737 739 743 745 748 752 756 760 763 766 769 772 775 778 780 783 785 788 790 792 794 796 798 801 803 805 807 809 811 812 814 815 817 819 821 823 824 826 828 829 830 832 833 835 836 837 839 839 840 841 841 842 842 842 842 842 842 842 842 843 844 845 845 846 846 847 847 846 846 846 846 847 847 847 846 846 846 844 843 842 842 841 840
722 726 731 734 737 740 743 747 751 754 758 761 765 768 770 773 776 779 781 784 787 789 791 793 795 797 800 802 804 806 808 810 811 813 815 817 819 822 823 825 827 829 830 832 833 835 836 837 838 839 840 841 841 842 842 842 843 843 842 842 842 843 843 844 845 845 846 846 846 847 846 846 846 846 846 846 845 845 844 843 842 841 840 838 838
715 719 723 727 731 735 739 743 746 749 753 757 760 763 766 769 771 774 777 780 783 785 787 789 791 794 797 799 801 803 805 807 809 811 813 816 818 821 823 825 827 828 830 832 834 835 836 837 838 839 840 841 842 842 843 843 843 843 843 843 842 843 843 843 844 844 845 846 846 846 846 846 845 845 845 845 845 844 843 842 841 840 839 837 835
710 713 716 720 725 730 734 738 741 745 749 752 755 758 761 764 767 770 773 776 779 782 784 786 788 791 793 795 798 800 802 804 807 809 812 814 817 819 822 824 826 828 830 832 833 835 836 837 838 839 840 841 841 842 843 843 843 844 843 843 843 843 843 843 843 844 844 845 845 846 846 845 845 845 845 845 844 844 843 842 841 840 839 837 835
706 707 710 714 718 723 727 731 735 739 743 747 750 753 756 760 763 766 769 772 775 778 780 782 785 787 789 792 794 796 799 802 804 807 810 813 816 818 821 823 825 827 829 830 832 833 835 836 837 838 839 840 841 842 842 842 843 843 843 843 843 842 842 842 843 843 843 844 844 844 845 845 844 844 844 844 843 843 842 841 840 839 839 837 835
701 702 706 708 711 716 720 724 729 733 738 742 745 749 753 756 759 762 765 768 771 774 776 779 780 783 786 788 790 793 796 800 803 807 810 812 814 817 819 821 823 825 827 828 830 831 833 835 836 837 838 839 840 840 841 841 841 842 842 842 842 841 841 842 842 842 842 843 843 843 843 843 843 843 843 843 842 842 841 840 840 838 838 836 835
697 699 702 704 705 709 714 719 724 728 733 737 742 746 749 752 755 758 762 764 767 770 772 775 776 779 782 784 787 790 794 798 802 805 808 810 813 816 818 820 822 824 826 827 829 830 832 833 834 836 837 838 839 839 839 840 840 840 840 840 840 840 840 840 841 841 841 841 841 841 841 841 841 841 841 841 841 841 840 839 838 837 836 835 834
693 695 698 699 700 703 708 713 718 723 729 733 738 741 744 748 751 754 758 761 764 766 768 771 773 775 778 781 784 788 792 796 799 802 806 809 812 814 817 819 821 823 825 827 829 830 831 832 833 834 835 836 837 837 838 838 838 838 838 838 838 838 839 838 839 839 839 839 839 839 839 839 839 839 839 839 839 839 838 837 837 836 835 834 833
688 689 691 693 694 696 701 708 713 719 725 728 732 736 739 743 746 749 753 756 759 762 764 767 769 772 775 777 781 784 788 791 794 798 802 806 810 813 816 818 821 823 826 828 830 830 831 831 832 833 834 835 835 835 836 836 836 836 836 837 837 837 837 837 837 837 836 837 837 836 837 837 837 837 836 836 836 836 836 836 835 834 833 833 831
683 684 685 687 689 691 696 702 709 714 718 723 727 730 734 737 740 744 748 751 754 757 760 763 765 769 771 773 776 779 783 787 791 795 799 803 808 811 815 819 821 823 825 828 830 831 831 831 832 833 833 833 833 833 834 834 834 834 834 835 835 835 835 835 834 834 834 834 834 834 834 834 834 834 834 834 833 834 834 833 833 832 831 830 830
677 679 680 682 685 688 692 698 703 708 712 717 722 725 729 732 735 739 742 745 749 752 756 759 762 764 766 769 772 775 779 784 787 790 795 800 806 811 815 818 823 827 827 828 831 831 831 830 830 831 831 832 832 831 831 832 832 832 831 831 832 832 832 832 832 832 832 832 832 831 831 831 832 832 832 832 831 831 831 831 830 829 829 828 827
675 676 677 679 681 685 690 694 698 703 708 713 717 720 724 728 731 735 737 740 744 748 752 755 757 759 762 766 769 772 776 780 785 789 793 799 807 813 815 816 824 831 830 829 831 832 831 829 828 829 829 829 828 828 828 828 828 828 828 828 829 829 830 830 829 829 829 829 829 829 829 829 829 829 830 830 829 829 829 828 828 827 826 825 824
674 675 676 677 679 682 686 690 694 699 704 708 713 717 720 724 727 730 733 737 740 743 747 750 753 756 760 763 767 771 775 779 783 787 790 796 804 810 814 815 820 827 829 829 830 830 828 826 824 823 824 824 824 824 824 824 825 825 825 826 826 827 827 827 827 827 826 827 827 827 827 828 827 827 827 827 827 827 827 826 825 824 823 822 821
675 675 675 677 679 681 684 687 691 696 699 704 709 712 716 720 724 727 729 733 735 738 742 746 750 753 757 762 768 772 778 783 787 787 786 790 797 804 809 811 812 816 820 821 822 822 820 817 815 815 817 818 819 820 821 821 822 823 823 824 824 825 825 826 825 825 825 825 825 825 825 825 825 825 825 825 825 825 825 824 822 820 820 820 819
674 674 675 677 679 681 682 685 688 692 697 701 705 709 713 717 720 723 726 729 732 735 738 741 744 747 751 757 762 765 769 776 785 787 783 783 790 798 803 804 804 805 806 807 808 808 808 807 806 807 809 812 814 817 818 818 819 820 821 822 823 823 823 824 824 823 823 823 823 823 822 822 822 822 822 822 823 823 823 822 821 819 818 818 817
672 673 675 676 678 679 680 683 685 689 694 697 701 706 709 713 717 720 723 725 729 732 734 736 740 745 749 751 755 759 762 766 775 782 782 781 786 791 794 795 796 793 791 791 791 792 793 796 798 800 803 806 809 811 814 815 816 817 819 820 821 821 821 821 821 821 821 821 821 820 820 819 819 820 820 820 820 820 820 820 819 818 817 816 815
671 672 672 673 676 677 678 680 683 687 691 694 698 702 705 710 713 716 719 722 725 729 731 735 740 744 748 751 755 760 763 766 772 778 780 781 781 782 782 782 781 780 780 781 782 784 787 790 792 796 800 803 805 807 809 811 813 814 817 818 819 819 819 819 819 819 819 819 819 818 818 817 817 818 818 817 817 817 817 817 817 816 815 813 812
666 668 668 669 671 673 675 678 680 683 687 690 694 698 701 706 709 712 716 718 722 726 729 734 739 742 745 750 754 757 760 763 767 770 771 771 770 770 770 769 770 773 776 779 781 783 785 788 792 797 801 802 803 804 806 808 809 812 814 816 816 816 816 817 817 817 817 817 817 817 816 816 816 816 816 815 815 815 814 814 814 813 812 810 809
660 662 665 666 667 670 672 675 677 679 683 687 691 694 698 702 705 708 712 715 720 723 727 732 736 739 742 745 748 751 753 756 758 761 763 762 761 761 761 763 766 770 773 776 778 780 783 788 794 798 800 800 800 801 802 805 806 809 811 813 813 813 813 814 814 814 815 815 814 814 814 813 814 814 814 812 812 812 812 811 811 811 810 808 806
657 659 661 664 664 666 668 670 672 676 680 684 688 692 696 698 702 705 708 713 716 720 725 729 733 737 739 741 743 744 747 749 752 755 756 756 756 757 758 760 762 764 766 770 775 778 782 786 791 794 797 797 797 797 799 802 803 805 807 809 810 810 810 811 811 811 812 812 812 811 810 809 810 810 810 809 808 809 809 808 808 808 807 805 802
658 658 660 662 662 662 664 667 670 674 679 682 686 690 693 696 699 703 706 710 713 717 722 726 730 735 736 737 739 741 744 747 749 751 753 753 755 757 756 756 757 759 762 767 772 776 780 783 786 790 793 795 795 795 796 798 800 801 803 804 806 807 807 808 808 808 809 810 809 808 807 806 807 807 808 808 806 804 804 806 806 804 803 801 800
657 656 656 658 659 660 662 665 669 673 677 681 685 688 691 695 698 701 704 707 711 715 719 723 727 731 733 734 736 739 742 745 747 749 750 752 754 755 755 756 757 759 761 765 770 774 777 780 783 786 790 792 793 793 793 796 798 799 800 800 801 803 803 804 805 805 806 806 806 806 805 804 804 805 806 806 804 802 802 804 804 802 800 798 797
655 655 655 656 656 657 659 662 666 670 674 678 682 686 690 693 697 700 703 706 709 712 716 721 724 728 730 732 734 737 740 743 745 747 748 750 752 753 755 757 758 760 761 764 768 771 774 778 781 784 788 789 789 790 792 794 795 797 797 797 798 799 800 801 802 802 803 804 804 803 802 801 802 802 802 802 801 801 800 801 800 799 797 796 794
650 651 653 653 653 655 657 660 663 667 671 674 678 683 687 690 695 698 701 704 707 710 714 718 722 725 727 729 732 735 739 741 743 745 747 749 751 752 755 758 759 761 762 764 767 769 772 777 779 782 785 786 787 788 790 792 793 795 795 795 795 796 796 798 799 800 800 801 800 800 799 799 799 799 798 798 798 798 798 798 797 796 795 793 792
643 645 648 649 651 653 656 659 662 663 666 669 674 679 683 687 692 695 698 702 704 707 712 716 719 722 725 727 730 734 737 740 742 744 746 748 750 753 756 757 759 761 762 764 766 769 771 775 777 779 781 783 783 784 788 790 791 792 792 791 792 794 795 797 798 797 796 796 796 795 795 795 797 798 796 795 795 795 795 796 795 793 792 791 789
639 643 646 648 649 650 653 659 662 661 662 665 670 675 680 685 689 692 696 700 703 706 710 714 717 720 723 726 729 733 736 739 741 743 745 747 750 753 755 756 758 760 762 764 766 768 771 773 775 776 777 779 780 782 785 787 787 787 787 787 789 791 794 797 799 797 795 794 792 791 791 792 795 796 795 794 793 793 793 794 793 791 790 789 788
639 641 643 645 648 650 652 657 660 660 661 665 669 673 678 683 687 691 695 698 702 706 710 713 716 719 723 726 729 733 736 738 741 742 744 747 749 752 754 756 758 760 761 763 765 768 770 771 772 773 774 776 778 780 782 784 784 784 784 785 787 789 790 793 796 796 794 793 791 790 789 790 792 793 792 792 791 791 792 792 791 790 788 787 786
638 640 642 644 647 650 653 656 659 660 663 666 670 674 679 683 686 690 693 696 701 705 709 712 715 719 722 725 728 732 735 737 739 740 742 745 748 751 753 755 757 759 760 762 764 766 768 769 770 771 772 774 776 777 779 780 780 781 782 783 785 786 787 789 790 791 791 791 791 790 789 790 790 790 789 789 789 790 790 790 789 788 787 786 784
638 640 641 643 646 650 653 656 660 662 665 668 672 675 679 684 686 689 690 693 698 703 707 710 714 717 721 724 727 731 733 736 738 740 742 745 747 750 752 754 756 758 760 762 763 764 765 767 767 769 771 772 774 775 775 776 777 778 780 780 781 782 785 786 787 787 788 789 790 790 789 789 788 787 787 788 788 788 788 788 788 787 786 785 784
640 642 643 644 647 651 654 657 661 663 666 669 672 675 679 683 685 688 689 690 693 698 703 707 711 715 719 723 726 730 733 735 737 739 742 744 747 750 752 753 755 757 759 761 763 763 763 765 766 768 770 771 772 772 772 773 775 777 778 778 779 781 783 784 785 785 786 787 788 788 788 787 786 786 786 786 786 786 786 786 786 786 785 784 782
642 644 646 648 651 655 658 661 663 665 667 668 671 674 677 680 683 685 687 689 690 694 699 703 707 712 716 720 724 728 731 733 735 738 741 744 746 749 751 753 754 756 758 760 761 762 763 764 765 768 769 770 769 769 770 772 773 775 776 776 777 779 781 783 784 784 784 785 785 785 785 785 785 784 784 785 785 785 785 785 784 783 783 782 781
644 648 650 652 656 658 661 664 666 668 670 670 671 672 674 677 681 685 688 690 692 694 698 701 705 709 714 718 722 726 728 730 733 737 740 743 746 749 751 752 754 755 757 759 760 761 761 762 764 765 766 767 767 768 769 771 772 773 774 775 776 778 780 782 782 782 782 782 783 783 783 783 783 783 783 783 783 784 783 783 782 782 781 780 779
649 652 654 656 659 661 664 667 669 670 673 674 674 673 673 676 681 685 690 694 695 696 697 700 704 708 713 717 721 724 727 729 732 736 739 742 745 747 749 751 753 754 756 756 757 758 759 760 761 762 763 765 766 767 769 770 771 772 773 774 775 777 779 780 779 779 780 780 781 781 781 781 782 782 782 782 782 781 781 781 780 780 779 779 778
655 657 658 660 662 664 667 669 671 673 674 676 676 676 676 679 681 684 690 696 696 696 697 700 704 708 711 715 719 723 726 728 731 735 739 742 744 745 747 749 750 752 753 754 755 756 757 758 759 760 761 763 764 766 768 768 769 771 771 772 774 776 776 776 776 777 778 779 779 780 780 780 780 780 781 781 780 780 779 779 779 778 778 778 777
660 661 662 663 664 667 669 671 673 675 676 677 678 677 679 681 682 685 690 695 696 695 698 701 706 709 712 715 718 722 725 728 731 735 738 741 743 744 745 747 748 749 751 752 753 753 754 755 756 758 760 762 763 765 767 768 769 770 770 771 773 774 774 774 775 777 777 778 778 778 778 779 778 778 779 779 779 778 778 777 777 777 777 777 776
664 665 666 666 668 670 672 673 676 677 678 679 679 680 681 683 685 688 691 694 694 695 698 702 706 710 713 715 718 721 724 728 732 735 737 739 740 742 743 745 746 747 748 750 751 752 752 754 755 757 759 761 763 765 766 767 768 768 768 769 771 771 772 773 775 776 776 778 778 777 777 777 777 776 776 776 777 778 777 777 776 776 775 775 774
666 667 669 669 671 673 674 676 678 680 681 682 682 683 684 685 687 690 691 692 693 696 699 702 706 710 713 716 719 722 724 727 731 734 735 736 738 739 742 744 745 746 747 748 749 750 751 752 753 755 757 759 761 762 763 763 764 764 765 767 768 770 771 772 773 774 775 776 776 776 775 775 774 774 773 773 774 775 775 775 775 774 774 772 772
669 670 671 673 674 675 677 679 681 683 684 684 684 685 686 687 688 689 689 691 693 695 699 702 705 709 713 716 718 721 724 727 730 732 733 735 736 738 741 743 744 745 746 748 748 749 750 751 752 753 755 756 757 758 759 760 761 762 763 765 767 768 770 771 772 773 774 774 773 773 772 771 772 772 771 771 772 772 773 773 772 772 771 770 770
672 673 674 675 676 677 679 681 683 684 685 686 686 686 687 687 687 688 689 691 693 694 697 700 703 707 711 714 717 720 724 726 728 729 731 733 735 737 740 741 742 743 745 746 747 748 749 750 751 753 754 754 755 756 757 758 759 760 762 764 765 767 768 769 770 771 772 771 771 771 770 769 770 770 770 770 771 771 771 771 770 769 769 768 768
Wind_Speed
17 21 23 24 23 22 21 20 20 20 20 20 21 21 21 22 22 22 22 22 22 21 20 20 19 18 17 16 16 17 16 15 16 16 16 16 15 15 16 17 16 15 16 16 17 18 16 12 10 10 7 5 4 3 3 3 2 3 5 6 7 7 7 7 6 5 8 7 6 6 4 3 2 1 1 2 3 3 4 5 5 6 6 6 6
16 18 21 24 24 24 23 21 21 22 21 21 21 21 22 22 22 23 22 22 22 21 19 19 18 18 16 15 15 16 15 14 15 16 13 13 15 15 17 18 16 16 16 15 15 15 13 9 9 10 8 5 4 3 3 2 2 3 5 6 6 6 6 6 5 5 7 6 5 6 5 4 3 2 1 1 2 3 4 5 5 6 7 7 6
16 17 20 24 25 25 24 21 22 22 22 22 22 22 22 22 23 23 23 23 22 22 20 20 20 19 16 14 13 13 13 12 12 13 12 12 15 14 15 16 15 15 13 11 10 10 9 8 8 8 7 5 2 2 2 2 3 4 5 6 6 6 6 6 5 5 6 5 4 4 4 3 3 3 1 1 2 3 3 5 6 7 8 8 7
17 18 19 22 25 25 24 23 23 22 22 22 23 23 22 23 24 24 23 23 23 22 21 22 22 19 16 14 12 11 12 12 11 12 12 11 13 14 13 12 11 11 11 10 9 8 7 7 7 5 4 2 1 2 3 3 4 5 5 6 6 6 6 4 3 3 4 4 4 3 3 3 2 1 0 1 2 2 3 5 5 6 8 8 8
17 19 19 20 24 26 26 24 23 23 23 23 23 23 23 23 25 24 23 23 23 22 21 22 21 18 16 15 12 13 13 13 12 12 11 10 12 12 10 8 9 10 9 9 8 8 7 7 5 2 1 1 2 3 3 3 4 4 4 4 5 6 5 4 2 2 2 2 3 3 3 3 1 3 3 1 2 1 2 5 5 5 7 7 7
17 19 19 20 24 26 26 26 25 24 24 23 23 23 23 23 23 23 22 22 22 21 21 21 19 19 19 16 13 14 13 12 12 11 10 10 9 8 7 7 9 9 8 8 7 8 8 6 3 1 1 2 2 3 3 3 3 3 3 3 3 4 3 4 3 2 2 2 2 2 2 2 3 4 3 2 1 2 2 3 4 5 5 5 6
17 18 19 20 23 25 25 26 26 25 24 23 23 23 23 23 22 22 22 22 22 21 21 21 19 19 19 16 14 14 13 12 11 10 10 8 6 5 5 6 7 7 8 8 7 7 7 6 3 1 3 3 3 3 3 3 2 2 2 2 2 2 2 4 4 3 2 3 3 2 0 2 3 3 3 3 1 2 1 1 2 4 4 4 5
16 17 19 19 22 24 25 26 26 26 25 24 23 23 23 23 23 23 23 23 22 22 21 21 19 19 18 17 16 15 14 13 11 10 10 8 6 6 5 6 6 6 7 8 8 7 7 5 3 3 3 3 3 3 2 1 1 1 1 2 2 1 2 3 3 3 4 3 2 2 1 1 2 3 3 3 2 2 1 2 3 4 4 4 5
18 17 18 19 22 25 26 26 26 27 26 24 24 23 23 24 23 23 23 22 22 22 22 21 20 19 18 18 18 16 14 12 11 11 10 9 8 7 7 6 6 7 8 8 8 8 7 5 4 4 4 5 4 4 3 1 1 1 1 2 1 1 2 2 3 4 4 2 1 2 1 1 0 1 2 1 2 3 2 2 3 5 4 4 4
18 18 18 19 22 25 26 27 27 27 27 25 25 24 23 23 23 24 24 23 22 22 22 22 21 20 20 19 18 16 14 13 12 11 11 10 9 9 9 8 7 8 9 9 9 8 7 6 5 5 5 6 5 5 4 3 2 2 2 2 1 1 2 2 3 3 3 2 0 1 1 0 1 1 1 1 1 1 3 5 6 6 5 5 5
18 18 18 20 23 25 25 26 27 27 27 27 26 25 25 24 24 24 24 23 23 22 23 23 22 21 21 20 19 17 16 15 14 13 12 11 10 10 10 9 9 8 9 9 9 8 8 7 7 6 6 6 6 5 4 3 4 4 3 2 2 1 1 2 2 3 3 3 2 1 1 2 2 2 2 2 2 3 3 5 7 7 7 8 6
18 17 18 19 21 23 25 26 27 28 28 28 27 26 26 25 25 24 24 24 24 23 24 24 24 23 22 21 20 19 18 17 16 15 14 13 12 11 10 10 9 8 8 8 9 9 9 8 7 7 7 7 7 6 4 4 3 4 4 3 3 2 2 1 2 3 3 4 4 3 3 3 3 4 3 2 3 4 4 5 6 6 6 8 8
18 17 17 17 18 19 23 26 27 28 28 29 28 28 27 26 26 26 26 26 25 25 25 25 25 24 23 22 21 20 19 19 18 16 15 14 13 11 10 10 8 8 9 9 9 9 9 9 8 8 7 7 7 6 5 5 4 4 5 4 4 4 3 3 3 4 4 4 5 4 4 5 5 5 5 5 5 5 5 6 7 7 7 9 8
18 17 17 17 17 18 22 26 26 27 29 29 28 28 28 27 27 27 26 26 26 26 26 25 25 24 23 23 22 21 20 20 19 18 16 15 13 12 10 9 8 8 9 9 10 10 10 9 9 8 8 7 7 6 6 6 5 5 5 5 6 5 5 5 4 5 5 5 6 5 6 6 6 6 6 7 7 7 7 7 7 7 8 10 9
18 18 19 19 19 20 23 25 26 26 28 29 29 28 28 27 27 27 27 27 27 26 26 26 25 25 24 23 23 22 21 21 20 18 17 15 14 12 10 9 9 8 9 9 9 10 9 9 9 9 8 7 7 7 6 6 6 6 6 6 6 6 7 7 7 7 7 7 8 7 8 8 7 7 8 8 8 8 8 8 8 7 7 8 8
18 19 20 20 21 23 24 25 26 26 28 29 29 29 29 28 27 27 27 27 27 26 26 26 25 24 25 25 24 22 21 21 20 18 17 16 14 12 11 10 9 8 8 9 9 9 9 8 9 9 8 8 8 7 7 6 7 7 7 7 7 7 8 8 8 8 8 9 9 9 9 10 8 8 9 9 9 9 9 9 10 9 7 6 6
18 18 19 20 21 23 27 27 27 28 28 30 30 29 29 29 27 26 26 27 27 26 26 25 25 25 25 26 25 24 24 23 21 20 18 16 15 13 11 10 10 9 9 9 9 9 9 9 9 9 9 9 8 8 8 7 7 8 8 8 9 8 8 9 9 9 9 9 9 9 10 10 9 9 9 10 9 10 10 10 10 10 9 7 6
18 19 19 20 21 23 28 30 29 30 30 30 30 29 28 28 28 27 26 27 27 26 26 25 24 24 25 26 26 26 25 23 21 19 18 17 16 14 13 11 10 10 10 10 9 9 9 10 9 9 9 9 9 8 8 8 8 8 8 9 9 9 9 9 9 9 10 9 10 9 10 10 10 9 10 10 10 11 11 11 10 10 11 10 9
17 18 18 19 20 22 27 30 31 31 30 29 30 29 28 28 28 29 28 27 28 26 24 23 23 23 23 25 26 25 24 22 21 19 18 18 17 15 14 11 11 12 12 11 10 10 10 10 10 9 9 9 9 9 9 9 9 8 8 9 10 10 10 10 9 10 10 10 10 10 10 11 11 11 11 11 11 12 11 11 11 11 12 12 13
16 17 18 19 21 24 29 32 32 32 30 29 29 29 30 30 28 30 29 27 28 27 24 23 23 22 22 23 24 24 23 22 21 20 20 18 17 16 14 12 12 14 13 11 10 9 9 9 9 9 9 9 9 10 9 9 9 9 8 9 9 9 10 10 10 10 10 10 10 10 11 11 11 11 12 12 12 11 11 12 12 12 13 13 14
17 17 18 20 21 25 31 33 31 31 29 29 30 30 31 31 29 30 30 28 28 28 26 24 23 23 23 23 24 24 24 23 23 23 21 19 18 16 14 13 14 13 11 9 9 9 8 8 8 8 9 9 9 10 9 9 9 9 9 9 9 10 10 10 9 9 10 10 10 11 12 12 12 13 12 11 11 10 11 12 12 12 13 13 13
18 18 19 19 19 23 29 31 30 31 30 30 30 30 30 31 30 29 30 30 29 28 27 25 24 24 24 25 25 26 26 25 23 22 20 18 18 16 14 13 11 11 10 8 8 9 8 8 9 10 10 10 10 10 10 10 10 10 9 9 10 10 11 10 10 10 10 10 10 11 12 12 13 13 12 11 11 11 11 12 12 12 13 13 12
17 18 18 17 17 19 24 27 29 30 30 30 29 29 30 30 29 28 29 31 30 28 27 25 25 26 26 27 27 26 26 25 24 23 21 18 16 16 15 11 6 4 6 6 8 10 10 10 11 13 14 13 12 13 12 12 11 11 11 11 11 11 12 11 11 10 10 10 11 12 13 13 13 12 12 12 12 12 12 12 13 12 13 14 12
15 16 15 16 17 17 18 20 24 27 28 28 28 27 28 28 28 28 28 29 30 29 28 27 27 27 26 27 27 26 26 26 24 23 22 19 15 12 12 10 7 2 4 3 6 9 10 11 12 15 17 17 16 15 15 15 14 13 13 12 12 12 13 12 12 11 11 11 12 13 13 13 13 12 12 13 13 13 13 13 13 12 12 13 13
14 14 15 16 16 16 15 16 20 24 26 27 26 26 26 26 27 27 26 27 28 29 29 28 27 26 25 26 25 24 24 24 23 25 26 23 18 15 13 13 11 4 3 5 8 12 14 15 16 17 20 21 21 19 18 17 16 15 14 13 13 13 13 13 13 12 12 12 13 14 14 14 14 14 14 14 14 14 14 14 14 13 12 13 13
12 13 14 15 14 14 15 15 19 24 25 26 26 25 25 24 24 25 25 25 26 28 29 27 25 24 24 23 21 19 19 18 21 27 30 28 23 19 17 17 15 11 11 16 21 23 23 24 23 23 24 25 24 22 20 18 17 15 14 14 13 13 14 14 14 13 13 13 14 15 15 16 15 15 16 16 15 15 14 14 15 13 12 12 13
10 12 13 13 14 15 17 16 19 23 24 25 25 25 24 23 23 24 24 24 24 25 25 26 26 24 22 23 24 25 27 25 23 28 33 32 27 24 23 22 21 23 28 31 31 32 34 33 32 30 28 26 25 23 21 19 17 16 15 14 14 14 14 14 15 14 13 14 16 17 17 17 17 17 18 17 16 15 14 13 15 14 12 12 14
10 12 14 15 15 16 17 16 18 22 23 23 23 24 23 22 22 23 23 23 22 22 24 26 23 18 18 23 27 29 31 31 29 30 32 31 31 33 32 29 29 35 41 42 41 43 43 41 38 34 30 27 25 23 21 19 18 16 15 15 14 14 14 15 15 14 14 15 17 17 17 17 16 16 17 18 17 15 14 14 15 15 14 14 16
13 14 15 16 15 15 16 16 18 21 22 22 22 22 22 21 21 22 23 23 21 21 23 20 14 12 16 21 23 24 26 28 29 31 31 32 36 40 40 39 41 44 47 47 47 46 45 43 40 35 30 28 26 22 21 22 20 18 17 16 15 15 15 15 15 15 15 15 16 17 17 17 18 18 19 20 18 17 17 18 17 16 15 16 16
14 15 15 16 17 16 16 16 17 19 22 22 21 22 22 22 22 22 22 21 20 19 18 16 12 16 21 23 24 26 29 31 32 33 36 42 46 46 45 46 47 46 46 46 45 44 44 42 36 31 29 28 26 22 21 23 22 20 19 18 16 15 15 15 16 16 15 16 17 17 16 17 18 19 19 18 16 18 19 20 20 18 16 16 16
15 16 15 15 16 16 16 17 18 20 23 23 21 21 22 22 21 21 20 19 19 18 17 16 16 21 25 26 27 30 33 36 38 39 42 46 50 50 49 47 46 45 45 46 46 45 40 31 25 26 27 26 25 24 23 22 20 20 22 20 18 17 16 16 16 16 17 19 18 16 16 17 16 16 18 19 19 21 21 20 20 19 17 18 17
12 13 14 15 16 17 19 19 19 21 22 22 20 20 20 20 19 19 18 18 18 17 17 17 19 22 26 27 29 33 36 38 41 44 47 50 52 51 49 47 46 46 47 48 47 42 33 23 21 24 25 24 24 24 22 21 21 21 22 23 20 17 16 17 17 17 17 17 16 16 16 16 15 15 17 17 17 18 18 17 19 20 19 20 19
8 10 13 14 14 15 16 16 17 19 20 20 19 18 17 18 17 16 16 16 17 17 17 19 22 24 25 28 31 34 36 39 43 47 50 52 51 48 46 47 47 47 46 44 39 32 25 22 22 23 21 20 20 21 21 21 22 22 21 21 20 18 17 18 18 15 14 12 11 11 12 12 12 13 14 14 14 14 14 16 18 18 18 19 19
7 10 12 13 13 12 13 15 17 18 18 17 16 15 15 16 16 16 17 17 17 17 17 21 25 26 27 29 32 34 35 37 42 47 50 51 49 47 45 45 45 44 41 35 27 23 21 22 23 24 21 16 15 19 22 20 19 21 20 18 19 20 19 20 19 17 14 10 7 7 7 8 10 11 12 12 11 10 10 14 17 17 17 17 16
8 10 11 12 13 13 14 17 18 18 18 18 17 16 17 17 18 18 18 18 19 19 20 23 26 26 27 29 30 31 32 34 37 42 46 47 47 46 44 40 36 33 31 26 21 19 20 22 23 23 20 16 15 18 20 19 20 23 21 18 17 18 19 19 19 17 13 10 7 5 4 5 8 11 13 12 11 10 12 15 17 17 17 16 15
11 12 13 13 15 16 17 19 21 21 20 20 19 19 19 19 19 19 19 20 20 21 22 24 25 25 25 26 27 28 30 32 34 36 38 38 39 38 34 28 24 21 21 20 18 18 19 21 22 21 18 15 14 15 17 19 22 24 21 17 15 16 19 19 17 14 12 10 8 5 5 8 11 13 13 12 12 14 14 14 15 16 16 15 16
12 12 14 16 18 20 21 20 21 23 23 22 22 21 21 20 20 19 20 20 21 22 23 24 24 24 24 25 27 30 30 30 30 30 30 29 28 26 23 20 19 18 17 17 17 16 17 19 20 20 18 15 15 17 18 19 20 20 16 13 11 12 14 16 16 15 15 14 11 9 11 12 10 10 11 11 12 13 12 13 15 16 15 15 16
10 11 14 17 19 21 22 21 21 23 25 25 25 24 22 21 20 20 20 20 19 21 22 23 23 23 24 26 31 34 33 28 25 25 25 22 20 19 18 16 16 17 17 17 17 17 17 18 19 19 19 17 16 18 20 22 21 18 15 13 12 10 10 15 17 16 16 15 13 13 11 7 7 11 11 10 11 11 11 12 15 14 14 15 16
12 15 17 18 18 19 21 21 21 21 23 24 25 24 22 20 19 20 20 19 19 20 21 22 22 22 24 27 31 35 34 28 23 22 21 18 16 16 15 14 14 16 17 17 17 18 17 17 17 18 19 18 17 17 20 22 22 21 20 16 13 12 14 18 19 16 13 9 7 7 6 5 9 11 10 9 10 10 10 10 12 13 15 17 17
14 16 17 18 17 18 19 19 19 19 20 22 23 22 19 19 19 20 19 19 19 20 20 21 21 22 24 26 29 31 30 26 24 23 20 17 16 14 14 13 13 15 16 17 17 17 16 16 16 16 17 16 16 17 18 20 21 21 19 16 13 14 16 17 15 12 9 5 4 3 4 6 8 8 8 9 10 10 9 8 9 12 15 16 15
15 17 19 20 20 20 20 18 16 17 19 21 20 19 18 18 18 18 19 20 21 22 21 22 23 23 24 26 27 27 25 22 23 22 18 15 14 13 13 14 13 13 14 15 15 16 16 16 16 15 15 14 15 14 14 17 19 18 15 14 14 16 17 15 10 8 7 5 5 5 5 5 5 5 6 7 7 8 7 6 8 12 14 15 16
17 17 20 22 21 21 20 17 15 17 19 19 19 19 18 18 18 18 20 23 25 25 24 24 25 25 25 25 26 26 23 21 21 20 17 15 15 13 13 14 13 13 13 14 15 15 16 15 14 13 13 13 15 16 14 14 15 15 14 14 13 15 16 13 8 7 6 6 6 6 5 4 4 4 5 5 5 6 5 5 9 12 13 14 14
18 18 20 21 18 15 14 13 13 15 17 19 21 20 18 18 19 19 22 25 27 28 28 27 26 26 26 26 26 26 23 21 21 20 18 17 16 15 14 14 13 12 12 13 14 14 14 13 13 13 13 12 14 17 15 13 13 13 13 13 13 15 15 12 9 7 7 6 6 6 6 4 3 2 2 3 4 5 5 6 8 10 10 11 10
19 20 21 19 14 12 12 11 10 9 10 13 16 17 16 16 17 18 20 23 24 26 28 27 26 25 26 25 25 24 22 20 20 20 18 17 17 15 14 13 13 13 13 13 13 13 13 13 13 13 12 11 11 13 13 14 14 13 13 14 15 15 14 11 8 5 5 5 5 5 5 3 1 2 3 4 5 5 6 6 8 9 9 8 7
18 18 18 17 14 12 13 13 12 11 9 7 8 11 13 14 14 15 16 18 21 25 27 26 25 25 25 24 22 21 19 19 20 20 18 18 18 17 15 14 14 14 14 14 14 14 14 14 14 13 11 10 10 10 10 14 16 16 16 14 13 14 13 10 6 4 4 5 5 4 3 2 2 3 3 3 4 6 7 8 8 8 7 7 7
15 15 15 15 14 13 13 13 11 9 9 8 7 9 12 13 14 15 16 18 21 23 25 24 24 23 23 22 21 20 18 18 19 18 17 17 17 16 15 15 15 15 14 14 13 13 14 14 13 12 11 10 10 10 9 12 15 17 15 13 14 14 10 6 4 5 5 6 5 4 3 3 3 4 3 3 5 8 9 9 7 5 5 6 7
12 12 12 14 13 12 12 12 10 8 7 8 9 10 12 13 14 15 17 18 19 20 21 21 20 21 21 21 20 19 19 18 18 17 16 16 16 15 14 14 14 13 13 13 13 12 13 13 12 12 11 9 8 9 10 11 13 14 15 14 13 10 7 4 4 6 6 5 5 4 3 3 4 4 4 6 8 8 7 6 5 5 6 6 6
12 11 12 13 13 12 11 10 9 7 7 8 9 10 11 12 13 14 16 17 16 17 18 19 18 18 19 19 19 19 19 19 18 16 15 14 14 12 12 12 12 11 11 12 13 13 12 11 10 10 9 8 8 11 12 13 14 14 14 12 9 7 5 5 6 6 6 5 5 5 4 5 6 5 5 6 7 7 6 6 6 5 6 6 7
11 11 11 12 12 12 11 10 8 7 7 8 9 10 11 13 14 15 17 17 17 17 17 18 18 17 17 18 18 18 18 18 17 15 14 13 13 11 9 7 8 10 10 9 10 10 9 9 10 10 10 10 11 13 13 13 13 13 12 10 8 7 7 7 8 9 7 6 7 7 6 7 8 8 8 8 8 8 7 6 6 5 6 7 6
12 12 11 10 11 11 11 10 8 6 6 7 8 9 11 13 15 16 17 18 18 17 17 17 16 16 16 17 17 17 17 16 15 14 14 13 12 11 10 7 7 10 13 14 12 8 6 6 7 8 10 10 8 8 9 9 11 13 12 11 11 11 11 10 10 9 8 7 8 9 8 7 8 8 8 8 7 6 6 5 5 5 6 6 6
13 12 10 9 8 8 8 8 7 5 6 7 8 10 11 13 15 16 17 18 18 17 17 17 16 16 17 17 16 16 16 15 13 12 12 11 9 8 9 9 9 10 11 14 15 13 11 10 6 4 8 10 8 6 7 7 9 12 11 11 12 12 12 11 9 8 8 8 8 8 8 8 7 8 8 6 6 5 5 5 6 6 6 7 7
Wind_Direction
191 190 191 191 193 193 194 197 199 201 202 203 205 207 209 209 210 212 212 212 213 213 212 214 215 216 222 223 225 231 230 230 234 231 234 242 241 236 238 244 248 248 246 248 255 251 242 246 244 228 223 219 215 242 266 283 300 301 293 284 279 279 276 270 269 280 286 285 282 283 273 245 259 300 9 20 6 9 24 18 14 22 26 22 23
189 190 192 193 195 194 195 198 199 201 201 203 206 208 210 211 212 213 213 211 212 214 213 213 214 214 221 226 228 233 231 230 236 233 227 231 237 236 231 233 238 240 239 247 256 246 231 234 231 219 214 209 217 242 263 277 281 276 276 272 268 270 275 275 274 272 278 293 302 294 276 227 224 258 298 27 22 24 38 39 35 35 36 30 25
189 189 193 196 197 197 198 200 202 203 202 203 206 209 210 211 212 212 214 213 213 214 213 213 216 216 222 228 228 234 239 237 238 234 225 227 240 240 227 227 232 233 237 244 243 233 228 226 215 214 218 216 232 270 280 281 276 269 260 262 268 267 266 264 262 267 285 309 301 281 287 258 216 217 249 39 22 13 41 54 44 42 44 39 35
190 190 193 197 199 199 201 202 203 204 204 205 206 208 210 212 211 210 212 213 214 214 214 218 220 218 220 226 227 233 242 247 246 236 226 233 243 236 229 235 233 231 238 235 227 225 220 208 198 208 227 239 287 285 283 277 266 263 255 255 260 265 273 268 251 265 292 307 291 282 295 277 243 220 277 82 53 359 50 68 50 43 47 43 42
193 194 195 197 199 201 202 202 203 204 206 207 207 209 211 213 212 211 211 213 216 215 216 220 221 218 218 218 220 225 233 240 244 237 226 231 237 227 223 227 219 222 228 220 221 222 208 198 198 207 249 278 281 268 275 274 265 259 257 258 251 259 284 292 275 270 281 292 294 305 290 267 346 3 330 26 95 26 56 72 50 26 39 45 45
197 199 199 198 200 202 202 203 204 205 207 208 209 210 211 213 213 211 211 213 216 216 217 219 220 221 219 215 216 220 224 228 233 233 227 229 232 225 220 210 208 217 215 210 216 209 196 197 203 246 291 248 239 253 258 263 264 251 254 269 254 250 274 283 282 267 257 259 252 274 299 321 4 358 330 343 81 43 32 81 63 26 21 38 46
201 202 202 201 200 201 202 202 204 206 207 208 210 211 212 213 210 209 212 215 217 217 216 216 219 221 220 221 225 224 227 227 226 227 226 228 226 221 221 213 214 220 214 209 203 193 193 199 203 259 257 230 219 231 247 264 269 247 253 264 255 250 256 266 274 261 249 250 228 216 243 15 21 18 8 3 22 43 4 285 36 33 8 9 25
203 203 204 203 200 200 201 201 203 206 206 207 209 210 211 212 210 211 214 216 215 215 214 213 216 220 223 228 228 227 230 228 222 222 223 227 228 224 219 214 220 223 215 209 202 197 199 202 222 254 240 222 215 221 236 259 254 234 223 207 214 247 257 264 273 274 268 248 207 187 148 80 57 60 50 20 330 320 292 268 338 359 339 345 359
206 205 204 203 201 199 199 200 202 204 205 206 207 208 210 211 211 211 211 212 212 212 212 211 214 219 224 227 225 224 228 226 223 220 217 218 223 226 223 216 221 225 218 213 208 203 202 214 243 249 230 218 216 218 216 197 187 214 191 181 196 226 249 268 265 270 280 275 182 161 119 66 74 79 68 32 327 310 307 305 321 317 308 334 338
207 207 204 202 201 198 198 198 200 202 204 205 205 207 208 209 210 210 209 208 209 210 210 210 213 217 220 224 223 220 220 220 221 218 213 214 218 223 223 219 220 224 222 218 213 206 206 226 242 235 225 218 216 216 207 188 191 203 188 171 187 219 231 251 258 271 290 307 320 149 127 284 284 345 327 311 318 295 300 301 305 311 317 327 320
204 206 205 203 201 198 197 197 198 200 202 204 205 205 206 208 210 211 211 209 208 209 210 211 213 216 220 222 221 220 219 217 217 216 215 216 217 220 221 219 219 222 224 218 211 210 216 228 233 225 217 215 214 212 207 201 192 185 177 164 167 197 218 238 263 282 289 285 270 229 238 262 281 291 286 306 306 291 300 300 306 320 317 310 310
198 202 205 203 201 199 197 197 197 199 201 203 205 204 205 208 210 212 214 213 212 211 211 212 214 217 220 222 221 221 222 219 216 215 217 217 218 220 220 220 220 217 217 214 212 215 221 225 225 218 212 211 212 207 204 208 196 178 173 171 168 181 209 237 264 274 275 271 263 249 255 264 266 270 271 272 274 283 295 289 295 307 300 298 307
194 197 201 202 203 200 198 198 196 197 199 201 203 204 206 208 209 212 214 214 213 213 213 213 215 217 219 221 222 222 223 222 219 216 217 217 217 219 220 221 219 214 212 213 214 216 219 222 220 215 210 208 207 203 198 200 200 194 184 181 184 190 206 218 239 261 267 270 271 264 266 272 267 260 263 266 267 270 269 273 290 298 293 296 301
193 193 195 200 203 201 199 199 197 197 198 200 202 204 206 207 209 212 213 213 214 214 214 213 214 217 218 220 220 220 220 220 220 219 217 217 217 220 225 225 224 224 221 220 217 216 220 222 216 210 207 206 205 203 202 202 204 208 203 199 203 203 209 216 229 248 256 263 269 271 271 275 276 272 270 272 278 280 277 284 296 293 289 294 299
191 189 191 195 198 199 199 199 198 198 198 201 202 203 206 207 207 209 211 212 213 214 214 213 213 215 217 218 219 219 217 217 218 218 217 217 217 221 227 229 232 236 233 229 225 222 223 220 211 206 205 206 205 205 208 210 211 216 218 219 221 218 217 221 229 238 249 256 261 268 273 274 275 275 276 277 281 284 284 289 293 292 295 298 302
193 190 189 190 192 195 197 199 198 198 200 203 202 202 204 206 205 206 209 211 212 213 213 213 212 213 215 217 218 217 216 215 216 215 215 215 215 219 224 227 231 236 233 229 227 226 224 216 208 206 206 207 207 209 214 218 219 223 228 230 234 233 228 231 237 242 249 256 260 266 269 273 277 275 277 277 277 278 277 280 284 291 303 305 303
195 193 187 185 187 191 195 199 199 199 200 202 202 202 202 203 204 204 205 209 211 212 213 212 210 211 214 215 215 216 216 215 215 214 214 214 213 214 219 224 225 224 222 222 221 218 215 210 207 206 208 211 212 211 215 220 222 228 236 240 243 245 242 241 245 249 253 258 263 267 266 271 275 272 273 274 273 272 271 274 279 284 293 299 304
194 193 188 184 186 190 195 199 200 199 199 200 200 199 199 201 204 204 206 208 209 210 211 210 207 207 211 212 212 214 214 215 217 216 214 213 212 211 216 221 217 211 209 209 209 206 205 205 207 210 210 214 217 217 218 220 224 232 241 247 249 252 252 251 251 254 258 261 263 264 265 268 271 269 269 270 269 268 267 271 275 275 278 281 290
193 193 190 187 189 191 195 200 201 199 199 199 197 197 199 201 203 207 209 207 209 210 209 206 204 204 207 208 209 210 211 212 213 212 211 210 209 212 216 214 209 210 208 202 200 202 202 202 206 212 215 217 220 222 223 222 226 234 242 250 252 250 249 250 252 255 257 259 260 260 260 262 265 265 264 265 264 262 263 269 272 272 272 271 276
194 193 191 191 194 195 197 201 201 199 197 197 198 199 202 204 203 207 209 207 208 209 206 204 202 203 203 203 205 205 203 201 199 201 206 206 206 210 211 206 210 215 206 197 201 201 199 203 210 218 221 221 222 225 228 227 229 234 241 252 257 252 248 247 250 255 256 256 257 257 258 259 259 256 255 259 260 259 262 269 274 275 272 267 267
194 192 193 194 197 199 199 200 200 199 197 198 201 203 205 207 206 205 206 206 207 206 205 203 200 200 199 198 199 198 194 192 191 196 198 197 202 210 212 210 213 212 198 192 204 204 201 207 216 226 226 225 226 229 232 232 231 235 240 249 255 254 250 247 247 250 251 253 255 256 258 258 256 251 250 256 261 262 266 268 272 273 270 268 266
193 192 195 195 197 201 200 198 198 198 198 199 203 204 207 209 208 205 205 206 207 205 203 200 197 198 197 196 194 190 189 187 183 183 181 183 195 205 210 210 204 201 198 207 227 223 216 219 223 231 233 229 230 231 234 236 237 238 239 244 249 248 245 244 244 245 246 251 254 254 256 256 253 250 248 254 261 264 267 269 271 272 269 269 266
193 194 196 195 197 199 197 194 194 195 196 198 201 204 207 209 208 205 204 206 208 205 202 199 197 199 199 197 193 186 184 181 176 174 169 173 190 200 203 196 174 189 210 227 253 248 237 237 237 240 241 237 232 231 231 233 235 235 236 240 245 246 246 244 242 242 245 250 251 251 253 254 252 249 248 255 260 262 266 268 271 272 267 269 269
196 197 197 197 196 195 193 192 190 191 193 195 199 203 206 207 207 206 206 206 206 205 203 200 200 203 199 195 192 184 178 175 172 164 154 159 175 181 178 165 149 255 293 295 280 268 257 252 249 249 249 244 235 230 229 230 230 231 232 235 239 243 245 244 241 241 245 249 251 250 252 254 252 249 252 258 261 263 266 269 273 275 268 267 270
197 197 196 197 195 190 188 187 186 187 190 193 196 199 202 203 204 205 206 206 205 206 206 203 204 205 199 192 188 177 173 173 163 151 150 159 166 163 161 161 162 188 311 307 276 268 262 255 248 247 247 244 240 233 228 227 228 229 230 232 237 240 242 242 240 240 244 249 252 253 254 256 254 252 255 261 265 269 273 274 275 278 275 271 270
195 193 192 192 189 186 183 181 182 185 189 192 193 195 196 198 199 202 204 204 205 206 207 206 207 204 197 190 179 163 159 155 147 151 158 162 164 169 181 190 196 212 231 238 245 252 253 248 241 237 237 240 241 236 230 227 228 229 230 231 235 238 240 243 243 244 246 249 251 252 253 254 254 254 258 264 270 276 279 279 277 278 281 279 274
191 188 186 185 184 182 180 179 180 184 188 190 192 193 192 192 195 198 201 202 204 205 205 204 204 200 188 175 170 170 172 169 167 169 166 163 171 188 197 200 211 226 226 222 228 237 243 242 237 232 231 231 234 235 231 228 227 228 229 230 234 239 242 245 248 250 251 253 255 254 253 253 253 256 261 265 268 273 278 285 289 291 293 291 288
186 187 184 184 186 182 180 181 182 185 188 188 190 191 190 190 192 196 200 201 200 199 199 199 200 192 171 161 164 171 174 175 174 168 161 165 183 198 204 205 212 222 224 222 225 231 234 234 231 228 225 224 226 228 228 228 227 228 230 232 235 240 244 248 251 252 252 255 259 260 260 260 258 259 263 265 265 269 273 279 286 290 292 293 294
186 190 187 185 186 185 183 182 184 187 187 186 187 187 187 188 190 194 200 200 196 195 196 196 188 158 143 143 146 150 154 156 156 155 162 180 192 197 203 208 212 220 224 225 228 231 230 230 228 226 224 223 221 219 224 231 231 229 232 237 240 243 246 250 255 256 258 259 263 267 269 270 271 268 263 262 266 271 271 273 277 281 284 289 291
191 194 193 189 186 185 183 181 184 186 185 185 184 184 185 187 189 193 197 197 193 190 190 187 163 137 134 135 138 146 155 163 166 169 178 190 196 198 202 208 212 219 223 226 229 231 229 230 229 227 225 224 221 220 224 231 233 233 238 241 242 244 246 251 256 259 266 272 274 273 273 276 280 273 264 267 275 274 270 268 267 269 276 282 283
197 193 194 192 185 183 182 181 184 186 184 183 182 182 186 188 190 192 191 190 188 183 181 179 160 140 139 145 151 158 168 178 182 183 186 191 196 199 203 206 211 217 224 228 229 229 227 227 226 227 227 224 225 228 229 231 234 239 244 245 244 245 245 249 256 263 271 276 276 273 274 283 284 273 274 286 286 277 274 267 257 257 268 273 270
204 192 190 191 187 184 183 183 184 184 182 181 179 180 184 186 187 186 183 183 183 181 184 182 165 149 146 153 164 169 173 178 181 184 188 193 196 198 202 205 210 218 223 225 225 223 221 217 216 223 228 227 230 234 233 233 234 236 242 245 246 248 247 248 255 263 269 273 275 276 281 285 277 267 275 284 278 271 275 269 255 254 265 270 267
205 192 187 190 189 185 182 180 180 180 179 179 177 176 178 178 176 173 172 174 175 179 183 172 162 160 158 159 167 170 170 173 178 184 190 193 196 199 202 206 211 216 218 217 216 216 214 211 211 217 226 229 233 235 233 235 235 233 236 241 243 247 251 252 255 260 265 266 266 274 286 288 283 280 279 274 268 266 264 259 256 259 267 272 271
205 198 188 186 185 179 174 173 175 176 174 173 171 168 166 166 163 161 163 165 165 170 169 157 158 168 168 164 166 167 167 171 179 186 189 193 198 203 207 209 210 213 213 210 210 209 209 211 211 216 223 225 227 232 232 232 234 231 232 238 241 242 248 254 258 262 267 266 254 262 285 295 298 296 285 277 282 277 257 256 262 267 272 272 269
193 188 180 177 176 171 166 165 165 163 161 161 161 161 160 160 160 158 158 158 158 159 157 155 164 174 171 165 165 164 166 172 180 186 190 194 201 207 211 212 212 213 213 211 209 208 211 216 216 217 222 221 224 234 232 226 229 232 234 241 240 236 242 253 257 259 264 269 269 271 282 289 290 285 278 279 284 276 267 269 271 271 273 273 270
190 182 176 173 170 165 160 158 156 155 157 157 158 159 159 157 158 157 156 157 156 157 159 162 171 176 171 165 163 163 168 176 181 186 191 196 202 208 212 213 213 213 212 211 212 212 215 221 218 214 217 216 215 224 223 220 224 227 229 237 241 242 248 250 247 249 256 263 272 282 291 296 291 281 276 277 276 274 275 273 269 269 273 277 278
189 182 174 168 165 161 157 158 160 159 157 154 153 154 153 152 153 154 156 157 155 156 162 165 171 176 171 165 165 169 174 179 182 186 191 196 201 206 209 210 211 213 212 212 215 216 220 222 212 202 205 209 209 218 224 221 219 221 226 233 236 241 252 252 242 238 242 247 257 277 295 302 289 264 262 269 271 274 274 267 268 274 279 281 282
168 165 163 162 164 159 155 163 168 159 150 148 147 148 148 149 152 153 154 154 153 155 161 165 169 173 170 168 173 178 179 181 184 188 190 194 200 204 206 207 209 211 213 214 217 221 222 218 207 198 204 213 214 218 225 225 224 231 239 235 219 215 243 263 261 253 248 251 261 276 287 285 248 243 256 264 265 269 268 265 272 279 281 283 284
155 157 157 156 157 155 156 165 164 149 140 140 141 143 145 148 150 151 151 151 151 153 158 162 166 167 167 170 176 181 183 183 184 184 184 188 194 198 201 203 205 211 217 221 224 227 223 218 216 212 211 220 223 220 226 234 239 243 243 234 224 226 244 259 264 263 263 262 263 273 273 237 227 239 251 257 259 262 261 262 274 282 284 286 286
151 149 143 138 141 146 152 154 147 134 131 135 137 139 143 146 148 150 150 148 149 152 154 157 160 163 167 170 175 180 182 181 180 180 180 182 185 189 193 197 204 214 223 226 227 226 222 224 231 224 214 219 227 226 234 243 241 236 232 228 230 241 249 253 252 248 248 233 203 220 230 219 223 234 250 258 259 258 256 262 276 282 283 284 284
134 134 132 130 133 136 137 133 126 124 128 132 137 139 142 146 150 151 149 146 147 150 153 155 158 162 166 170 174 178 178 175 176 177 176 176 178 181 182 186 195 204 211 219 223 223 224 228 232 226 216 219 224 224 234 239 229 221 220 222 232 247 256 257 244 221 212 198 186 194 203 212 226 238 248 253 254 259 263 267 270 270 270 273 277
113 117 124 127 127 127 126 126 126 130 133 137 140 141 143 148 151 152 151 148 150 154 156 157 159 162 165 168 173 177 175 172 174 175 172 170 172 173 171 175 188 197 202 212 220 224 226 226 226 225 221 220 221 221 222 224 219 219 225 233 244 256 258 250 230 206 202 194 182 186 201 217 228 234 242 250 260 269 268 258 258 261 266 276 283
108 110 114 117 115 112 114 119 126 134 141 144 143 143 148 153 153 154 155 154 155 156 157 157 159 160 163 166 170 173 173 171 171 171 169 166 165 167 170 177 191 198 198 205 212 217 220 222 224 223 216 210 216 222 225 224 220 222 233 246 255 254 244 230 218 212 204 183 168 182 208 220 222 238 263 270 269 268 262 260 266 272 279 290 294
108 108 108 108 100 87 83 79 77 91 117 134 140 144 147 149 150 153 156 155 155 154 154 155 157 158 162 166 167 168 169 168 168 168 167 165 165 168 174 182 191 195 195 198 203 208 214 218 220 218 209 199 204 216 227 231 226 226 238 247 246 234 218 206 207 206 181 167 171 189 212 238 282 286 275 267 265 266 266 270 279 288 294 295 290
97 95 98 102 96 85 79 71 61 60 66 82 116 132 132 131 137 144 150 154 154 153 153 154 154 157 161 163 163 163 164 165 167 169 169 169 171 175 178 181 188 193 195 198 201 205 212 216 217 215 205 193 192 200 217 229 229 231 238 233 213 197 193 192 187 172 173 197 213 220 238 274 280 266 265 277 282 280 280 285 292 298 295 282 277
84 77 82 92 94 91 89 82 73 68 64 61 79 109 118 126 135 143 154 159 155 151 150 152 154 158 159 158 160 162 162 162 165 169 171 171 174 178 180 182 189 195 197 201 206 209 211 212 214 212 202 191 192 196 207 226 232 228 221 202 182 184 197 203 195 204 218 223 223 225 230 244 257 258 250 253 265 271 280 290 299 295 277 269 273
73 67 74 85 87 88 90 86 77 72 71 70 77 93 110 124 134 143 154 158 150 143 145 149 153 156 157 158 161 162 160 160 162 164 168 172 175 180 181 184 192 202 206 211 214 215 216 216 215 213 206 194 195 202 205 214 219 208 192 180 178 188 206 207 200 211 220 216 214 226 238 245 261 268 250 243 250 258 269 276 272 262 259 265 277
72 71 79 87 87 84 84 82 75 69 70 76 83 94 110 124 135 147 155 153 144 143 147 150 152 154 156 159 159 158 159 163 165 164 167 172 176 183 190 195 201 208 214 219 220 219 221 220 213 208 201 193 205 217 213 205 200 190 177 170 171 178 188 195 194 187 184 195 214 230 236 225 220 225 240 251 254 257 263 261 252 257 270 272 276
71 71 78 89 97 96 92 89 84 78 79 86 95 109 123 133 143 152 151 146 143 146 150 150 149 149 152 154 156 159 164 166 164 161 162 163 164 170 179 185 195 204 210 218 225 221 215 212 210 204 200 204 213 215 209 200 193 184 173 168 174 178 179 190 198 191 186 203 220 223 229 231 231 241 260 270 269 267 270 262 248 257 281 285 287
70 72 74 84 98 104 103 100 97 95 101 106 113 124 132 138 144 146 143 140 142 145 145 145 145 146 150 154 159 165 170 170 165 162 162 163 165 175 185 186 197 212 214 216 221 217 195 198 213 205 202 211 212 199 198 198 193 188 186 186 191 192 190 197 206 204 206 226 237 238 247 258 264 270 273 271 269 269 271 271 265 269 282 291 297
68 69 69 75 89 100 105 107 110 113 117 120 124 129 132 133 137 139 139 139 141 142 141 142 144 144 150 157 161 163 168 172 170 165 163 161 164 183 204 219 231 236 229 221 223 220 208 211 226 203 198 212 215 206 213 212 194 193 199 203 203 203 203 208 207 200 210 234 246 253 263 268 271 275 272 266 267 268 266 278 288 291 294 296 297